Weather History for PHHI - February, 2013

Change the Weather History Date:

Friday, February 1, 2013

  Actual Average Record
Temperature  
Mean Temperature 69 °F -  
Max Temperature 75 °F 74 °F 82 °F (2001)
Min Temperature 63 °F 61 °F 56 °F (2011)
Cooling Degree Days 4    
Growing Degree Days 19 (Base 50)    
Moisture  
Dew Point 57 °F    
Average Humidity 65    
Maximum Humidity 78    
Minimum Humidity 43    
Precipitation  
Precipitation 0.00 in - - ()
Sea Level Pressure  
Sea Level Pressure 30.07 in    
Wind  
Wind Speed 9 mph (ENE)    
Max Wind Speed 18 mph    
Max Gust Speed 23 mph    
Visibility 10 miles    
Events      
Averages and records for this station are not official NWS values.
T = Trace of Precipitation, MM = Missing Value Source: NWS Daily Summary

Daily Weather History Graph

Daily Weather History Graph

Search for Another Location

Airport or City:

Trip Planner

Search our weather history database for the weather conditions in past years. The results will help you decide how hot, cold, wet, or windy it might be!

Date:

Astronomy

Feb. 01, 2013 Rise Set
Actual Time 7:09 AM HST 6:22 PM HST
Civil Twilight 6:46 AM HST 6:45 PM HST
Nautical Twilight 6:19 AM HST 7:12 PM HST
Astronomical Twilight 5:53 AM HST 7:38 PM HST
Moon 11:46 PM HST (2/1) 10:40 AM HST (2/1)
Length of Visible Light 11h 59m
Length of Day
11h 12m
Waning Gibbous, 68% of the Moon is Illuminated
Feb 1
Waning Gibbous
Feb 3
Last Quarter
Feb 9
New
Feb 17
First Quarter
Feb 25
Full

Hourly Weather History & Observations

Time (HST) Temp. Dew Point Humidity Pressure Visibility Wind Dir Wind Speed Gust Speed Precip Events Conditions
12:55 AM 66.9 °F 59.9 °F 78% 30.07 in 10.0 mi NNE 11.5 mph - N/A   Clear
1:55 AM 66.6 °F 59.0 °F 77% 30.06 in 10.0 mi NNE 11.5 mph - N/A   Clear
2:55 AM 65.7 °F 58.5 °F 78% 30.05 in 10.0 mi North 5.8 mph - N/A   Clear
3:55 AM 64.9 °F 57.7 °F 77% 30.04 in 10.0 mi NW 6.9 mph - N/A   Partly Cloudy
4:55 AM 63.7 °F 56.5 °F 77% 30.05 in 10.0 mi Variable 3.5 mph - N/A   Clear
6:55 AM 64.0 °F 55.0 °F 73% 30.07 in 10.0 mi West 4.6 mph - N/A   Mostly Cloudy
7:55 AM 64.6 °F 55.6 °F 73% 30.09 in 10.0 mi Calm Calm - N/A   Scattered Clouds
8:55 AM 67.5 °F 57.2 °F 70% 30.09 in 10.0 mi Calm Calm - N/A   Mostly Cloudy
9:05 AM 68.0 °F 57.2 °F 68% 30.09 in 10.0 mi Variable 6.9 mph - N/A   Scattered Clouds
9:55 AM 70.9 °F 57.2 °F 62% 30.11 in 10.0 mi East 8.1 mph - N/A   Scattered Clouds
10:55 AM 72.7 °F 57.6 °F 59% 30.11 in 10.0 mi East 12.7 mph 20.7 mph N/A   Scattered Clouds
11:55 AM 73.2 °F 57.6 °F 58% 30.09 in 10.0 mi ENE 18.4 mph 21.9 mph N/A   Partly Cloudy
12:55 PM 74.3 °F 58.8 °F 58% 30.07 in 10.0 mi ENE 11.5 mph - N/A   Mostly Cloudy
1:55 PM 75.6 °F 57.6 °F 53% 30.05 in 10.0 mi East 15.0 mph 21.9 mph N/A   Clear
2:55 PM 75.0 °F 55.2 °F 50% 30.04 in 10.0 mi East 16.1 mph 23.0 mph N/A   Clear
3:55 PM 74.8 °F 52.0 °F 45% 30.04 in 10.0 mi NE 6.9 mph - N/A   Clear
4:55 PM 74.1 °F 50.4 °F 43% 30.04 in 10.0 mi East 12.7 mph 19.6 mph N/A   Clear
5:55 PM 71.8 °F 54.7 °F 55% 30.06 in 10.0 mi East 5.8 mph 18.4 mph N/A   Clear
6:55 PM 68.5 °F 56.5 °F 65% 30.08 in 10.0 mi East 5.8 mph - N/A   Clear
7:55 PM 68.4 °F 57.6 °F 68% 30.09 in 10.0 mi ENE 16.1 mph 20.7 mph N/A   Clear
8:55 PM 68.7 °F 57.7 °F 68% 30.10 in 10.0 mi East 16.1 mph - N/A   Clear
9:55 PM 69.1 °F 58.6 °F 69% 30.10 in 10.0 mi ENE 17.3 mph - N/A   Clear
10:55 PM 69.1 °F 59.0 °F 70% 30.11 in 10.0 mi East 9.2 mph - N/A   Partly Cloudy
11:55 PM 68.0 °F 58.3 °F 71% 30.09 in 10.0 mi Calm Calm - N/A   Clear